Location: Hartman Creek State Park
(44.3257°N, 89.2134°W)
Time: 14:49:18
(UTC-05:00)

Cosmos 2263 Rocket - Visible Passes

Search period start: 29 July 2016 00:00
Search period end: 08 August 2016 00:00
Orbit: 824 x 848 km, 71.0° (Epoch: 29 July)

Date Brightness Start Highest point End Pass type
(mag) Time Alt. Az. Time Alt. Az. Time Alt. Az.
29 Jul 4.2 03:55:51 10° N 04:00:45 30° NE 04:05:36 10° ESE visible
30 Jul 4.3 03:39:13 10° N 03:44:00 28° NE 03:48:45 10° ESE visible
31 Jul 4.4 03:22:36 10° N 03:27:16 26° NE 03:31:54 10° ESE visible
31 Jul 2.3 05:06:05 10° NW 05:11:31 53° WSW 05:16:53 10° S visible
01 Aug 4.4 03:05:58 10° N 03:10:31 25° NE 03:15:01 10° ESE visible
01 Aug 2.2 04:49:21 10° NNW 04:54:50 58° WSW 05:00:16 10° S visible
02 Aug 4.5 02:49:21 10° N 02:53:46 23° NE 02:58:09 10° ESE visible
02 Aug 2.1 04:32:38 10° NNW 04:38:09 63° WSW 04:43:38 10° S visible
03 Aug 4.5 02:32:45 10° N 02:37:01 22° NE 02:41:15 10° E visible
03 Aug 2.1 04:15:56 10° NNW 04:21:29 68° WSW 04:26:59 10° SSE visible
03 Aug 5.6 20:58:02 10° NW 20:58:37 10° NW 20:59:11 10° NNW visible
04 Aug 4.6 02:16:09 10° N 02:20:16 20° NE 02:24:20 10° E visible
04 Aug 2.1 03:59:14 10° NNW 04:04:48 74° WSW 04:10:20 10° SSE visible
05 Aug 4.6 01:59:33 10° N 02:03:30 19° NE 02:07:24 10° E visible
05 Aug 2.0 03:42:31 10° NNW 03:48:07 80° WSW 03:53:40 10° SSE visible
06 Aug 4.6 01:42:58 10° N 01:46:44 18° NE 01:50:28 10° E visible
06 Aug 2.1 03:25:50 10° NNW 03:31:26 86° WSW 03:36:37 12° SSE visible
06 Aug 3.9 05:12:26 10° WNW 05:14:26 12° W 05:16:26 10° WSW visible
07 Aug 4.7 01:26:24 10° N 01:29:58 17° NE 01:33:30 10° E visible
07 Aug 2.1 03:09:08 10° NNW 03:14:45 87° ENE 03:18:16 23° SSE visible
07 Aug 3.8 04:55:19 10° WNW 04:57:49 13° W 04:59:50 11° WSW visible
